Time,TemperatureF,DewpointF,PressureIn,WindDirection,WindDirectionDegrees,WindSpeedMPH,WindSpeedGustMPH,Humidity,HourlyPrecipIn,Conditions,Clouds,dailyrainin,SoftwareType,DateUTC
2013-07-17 00:00:00,77.6,73.4,30.22,NNW,342,0.0,4.0,87,0.00,,---,0.00,VWS V14.01,2013-07-17 04:00:00,
2013-07-17 00:01:00,77.5,73.3,30.22,NNW,342,0.0,1.0,87,0.00,,---,0.00,VWS V14.01,2013-07-17 04:01:00,
2013-07-17 00:06:00,77.4,73.2,30.22,NNW,342,0.0,1.0,87,0.00,,---,0.00,VWS V14.01,2013-07-17 04:06:00,
2013-07-17 00:11:00,77.3,73.1,30.22,NNW,342,0.0,3.0,87,0.00,,---,0.00,VWS V14.01,2013-07-17 04:11:00,
2013-07-17 00:16:00,77.2,73.0,30.22,NNW,342,0.0,3.0,87,0.00,,---,0.00,VWS V14.01,2013-07-17 04:16:00,
2013-07-17 00:21:00,77.2,73.0,30.22,North,360,0.0,3.0,87,0.00,,---,0.00,VWS V14.01,2013-07-17 04:21:00,
2013-07-17 00:26:00,77.2,73.0,30.22,North,360,0.0,3.0,87,0.00,,---,0.00,VWS V14.01,2013-07-17 04:26:00,
2013-07-17 00:30:00,77.2,73.0,30.22,North,360,0.0,3.0,87,0.00,,---,0.00,VWS V14.01,2013-07-17 04:30:00,
2013-07-17 00:31:00,77.1,72.9,30.21,North,360,0.0,1.0,87,0.00,,---,0.00,VWS V14.01,2013-07-17 04:31:00,
2013-07-17 00:36:00,77.0,72.8,30.21,North,360,0.0,1.0,87,0.00,,---,0.00,VWS V14.01,2013-07-17 04:36:00,
2013-07-17 00:41:00,76.9,72.7,30.21,North,360,0.0,1.0,87,0.00,,---,0.00,VWS V14.01,2013-07-17 04:41:00,
2013-07-17 00:46:00,76.9,73.1,30.21,North,360,0.0,1.0,88,0.00,,---,0.00,VWS V14.01,2013-07-17 04:46:00,
2013-07-17 00:51:00,76.9,73.1,30.21,North,360,0.0,1.0,88,0.00,,---,0.00,VWS V14.01,2013-07-17 04:51:00,
2013-07-17 00:55:00,76.9,73.1,30.21,North,360,0.0,1.0,88,0.00,,---,0.00,VWS V14.01,2013-07-17 04:55:00,
2013-07-17 00:59:00,76.8,73.0,30.21,North,360,0.0,0.0,88,0.00,,---,0.00,VWS V14.01,2013-07-17 04:59:00,
2013-07-17 01:00:00,76.8,73.0,30.21,North,360,0.0,1.0,88,0.00,,---,0.00,VWS V14.01,2013-07-17 05:00:00,
2013-07-17 01:04:00,76.8,73.0,30.21,North,360,0.0,1.0,88,0.00,,---,0.00,VWS V14.01,2013-07-17 05:04:00,
2013-07-17 01:09:00,76.7,72.9,30.21,North,360,0.0,1.0,88,0.00,,---,0.00,VWS V14.01,2013-07-17 05:09:00,
2013-07-17 01:14:00,76.7,72.9,30.21,North,360,0.0,1.0,88,0.00,,---,0.00,VWS V14.01,2013-07-17 05:14:00,
2013-07-17 01:19:00,76.7,72.9,30.21,North,360,0.0,1.0,88,0.00,,---,0.00,VWS V14.01,2013-07-17 05:19:00,
2013-07-17 01:24:00,76.6,72.8,30.20,North,360,0.0,1.0,88,0.00,,---,0.00,VWS V14.01,2013-07-17 05:24:00,
2013-07-17 01:29:00,76.6,72.8,30.20,North,360,0.0,0.0,88,0.00,,---,0.00,VWS V14.01,2013-07-17 05:29:00,
2013-07-17 01:30:00,76.6,72.8,30.20,North,360,0.0,1.0,88,0.00,,---,0.00,VWS V14.01,2013-07-17 05:30:00,
2013-07-17 01:35:00,76.5,73.0,30.20,North,360,0.0,1.0,89,0.00,,---,0.00,VWS V14.01,2013-07-17 05:35:00,
2013-07-17 01:40:00,76.4,72.9,30.20,North,360,0.0,1.0,89,0.00,,---,0.00,VWS V14.01,2013-07-17 05:40:00,
2013-07-17 01:45:00,76.3,72.8,30.20,North,360,0.0,1.0,89,0.00,,---,0.00,VWS V14.01,2013-07-17 05:45:00,
2013-07-17 01:50:00,76.1,72.6,30.20,North,360,0.0,1.0,89,0.00,,---,0.00,VWS V14.01,2013-07-17 05:50:00,
2013-07-17 01:55:00,76.1,72.6,30.20,North,360,0.0,1.0,89,0.00,,---,0.00,VWS V14.01,2013-07-17 05:55:00,
2013-07-17 02:00:00,76.0,72.5,30.20,North,360,0.0,0.0,89,0.00,,---,0.00,VWS V14.01,2013-07-17 06:00:00,
2013-07-17 02:05:00,76.0,72.5,30.20,North,360,0.0,1.0,89,0.00,,---,0.00,VWS V14.01,2013-07-17 06:05:00,
2013-07-17 02:10:00,75.9,72.8,30.20,North,360,0.0,1.0,90,0.00,,---,0.00,VWS V14.01,2013-07-17 06:10:00,
2013-07-17 02:15:00,75.8,72.7,30.20,North,360,0.0,1.0,90,0.00,,---,0.00,VWS V14.01,2013-07-17 06:15:00,
2013-07-17 02:20:00,75.8,72.7,30.20,North,360,0.0,1.0,90,0.00,,---,0.00,VWS V14.01,2013-07-17 06:20:00,
2013-07-17 02:25:00,75.8,72.7,30.20,North,360,0.0,1.0,90,0.00,,---,0.00,VWS V14.01,2013-07-17 06:25:00,
2013-07-17 02:30:00,75.6,72.5,30.19,North,360,0.0,0.0,90,0.00,,---,0.00,VWS V14.01,2013-07-17 06:30:00,
2013-07-17 02:35:00,75.6,72.5,30.19,North,360,0.0,1.0,90,0.00,,---,0.00,VWS V14.01,2013-07-17 06:35:00,
2013-07-17 02:40:00,75.6,72.5,30.20,North,360,0.0,1.0,90,0.00,,---,0.00,VWS V14.01,2013-07-17 06:40:00,
2013-07-17 02:45:00,75.5,72.4,30.20,North,360,0.0,1.0,90,0.00,,---,0.00,VWS V14.01,2013-07-17 06:45:00,
2013-07-17 02:50:00,75.4,72.6,30.20,North,360,0.0,1.0,91,0.00,,---,0.00,VWS V14.01,2013-07-17 06:50:00,
2013-07-17 02:55:00,75.4,72.6,30.20,North,360,0.0,1.0,91,0.00,,---,0.00,VWS V14.01,2013-07-17 06:55:00,
2013-07-17 03:00:00,75.4,72.6,30.19,North,360,0.0,0.0,91,0.00,,---,0.00,VWS V14.01,2013-07-17 07:00:00,
2013-07-17 03:05:00,75.3,72.5,30.19,North,360,0.0,4.0,91,0.00,,---,0.00,VWS V14.01,2013-07-17 07:05:00,
2013-07-17 03:10:00,75.3,72.5,30.20,NNW,344,0.0,5.0,91,0.00,,---,0.00,VWS V14.01,2013-07-17 07:10:00,
2013-07-17 03:15:00,75.2,72.4,30.19,NNW,345,0.0,5.0,91,0.00,,---,0.00,VWS V14.01,2013-07-17 07:15:00,
2013-07-17 03:20:00,75.1,72.3,30.19,NNW,345,0.0,5.0,91,0.00,,---,0.00,VWS V14.01,2013-07-17 07:20:00,
2013-07-17 03:25:00,75.1,72.3,30.19,NNW,345,0.0,5.0,91,0.00,,---,0.00,VWS V14.01,2013-07-17 07:25:00,
2013-07-17 03:30:00,75.0,72.2,30.19,NNW,345,0.0,1.0,91,0.00,,---,0.00,VWS V14.01,2013-07-17 07:30:00,
2013-07-17 03:35:00,74.9,72.1,30.19,NNW,345,0.0,1.0,91,0.00,,---,0.00,VWS V14.01,2013-07-17 07:35:00,
2013-07-17 03:40:00,74.9,72.4,30.19,NNW,345,0.0,1.0,92,0.00,,---,0.00,VWS V14.01,2013-07-17 07:40:00,
2013-07-17 03:45:00,74.8,72.3,30.19,NNW,345,0.0,1.0,92,0.00,,---,0.00,VWS V14.01,2013-07-17 07:45:00,
2013-07-17 03:50:00,74.8,72.0,30.19,NNW,345,0.0,1.0,91,0.00,,---,0.00,VWS V14.01,2013-07-17 07:50:00,
2013-07-17 03:55:00,74.8,72.3,30.19,NNW,345,0.0,1.0,92,0.00,,---,0.00,VWS V14.01,2013-07-17 07:55:00,
2013-07-17 04:00:00,74.8,72.3,30.19,NNW,345,0.0,0.0,92,0.00,,---,0.00,VWS V14.01,2013-07-17 08:00:00,
2013-07-17 04:05:00,74.7,72.2,30.19,NNW,345,0.0,1.0,92,0.00,,---,0.00,VWS V14.01,2013-07-17 08:05:00,
2013-07-17 04:10:00,74.7,72.2,30.19,NNW,345,0.0,1.0,92,0.00,,---,0.00,VWS V14.01,2013-07-17 08:10:00,
2013-07-17 04:15:00,74.7,72.2,30.18,NNW,345,0.0,1.0,92,0.00,,---,0.00,VWS V14.01,2013-07-17 08:15:00,
2013-07-17 04:20:00,74.8,72.3,30.19,NNW,345,0.0,1.0,92,0.00,,---,0.00,VWS V14.01,2013-07-17 08:20:00,
2013-07-17 04:25:00,74.8,72.3,30.19,NNW,345,0.0,1.0,92,0.00,,---,0.00,VWS V14.01,2013-07-17 08:25:00,
2013-07-17 04:30:00,74.9,72.4,30.19,ENE,60,0.0,4.0,92,0.00,,---,0.00,VWS V14.01,2013-07-17 08:30:00,
2013-07-17 04:36:00,75.0,72.5,30.19,NE,47,0.0,4.0,92,0.00,,---,0.00,VWS V14.01,2013-07-17 08:36:00,
2013-07-17 04:41:00,75.1,72.6,30.19,NE,47,0.0,4.0,92,0.00,,---,0.00,VWS V14.01,2013-07-17 08:41:00,
2013-07-17 04:46:00,75.1,72.6,30.19,NE,47,0.0,4.0,92,0.00,,---,0.00,VWS V14.01,2013-07-17 08:46:00,
2013-07-17 04:51:00,75.1,72.6,30.19,NE,47,0.0,4.0,92,0.00,,---,0.00,VWS V14.01,2013-07-17 08:51:00,
2013-07-17 04:56:00,75.1,72.6,30.19,NE,47,0.0,4.0,92,0.00,,---,0.00,VWS V14.01,2013-07-17 08:56:00,
2013-07-17 05:00:00,75.1,72.6,30.19,NE,47,0.0,4.0,92,0.00,,---,0.00,VWS V14.01,2013-07-17 09:00:00,
2013-07-17 05:01:00,75.1,72.6,30.19,NE,47,0.0,0.0,92,0.00,,---,0.00,VWS V14.01,2013-07-17 09:01:00,
2013-07-17 05:06:00,75.1,72.6,30.19,NE,47,0.0,0.0,92,0.00,,---,0.00,VWS V14.01,2013-07-17 09:06:00,
2013-07-17 05:11:00,75.1,72.6,30.20,NE,47,0.0,0.0,92,0.00,,---,0.00,VWS V14.01,2013-07-17 09:11:00,
2013-07-17 05:16:00,75.0,72.5,30.20,NE,47,0.0,0.0,92,0.00,,---,0.00,VWS V14.01,2013-07-17 09:16:00,
2013-07-17 05:21:00,75.0,72.5,30.20,NE,47,0.0,1.0,92,0.00,,---,0.00,VWS V14.01,2013-07-17 09:21:00,
2013-07-17 05:26:00,74.9,72.4,30.20,NE,47,0.0,1.0,92,0.00,,---,0.00,VWS V14.01,2013-07-17 09:26:00,
2013-07-17 05:30:00,74.9,72.4,30.19,NE,47,0.0,1.0,92,0.00,,---,0.00,VWS V14.01,2013-07-17 09:30:00,
2013-07-17 05:31:00,74.9,72.4,30.20,NE,47,0.0,0.0,92,0.00,,---,0.00,VWS V14.01,2013-07-17 09:31:00,
2013-07-17 05:36:00,74.9,72.4,30.20,NE,47,0.0,0.0,92,0.00,,---,0.00,VWS V14.01,2013-07-17 09:36:00,
2013-07-17 05:41:00,74.8,72.3,30.20,NE,47,0.0,0.0,92,0.00,,---,0.00,VWS V14.01,2013-07-17 09:41:00,
2013-07-17 05:46:00,74.8,72.3,30.19,NE,47,0.0,0.0,92,0.00,,---,0.00,VWS V14.01,2013-07-17 09:46:00,
2013-07-17 05:51:00,74.7,72.2,30.20,NE,47,0.0,1.0,92,0.00,,---,0.00,VWS V14.01,2013-07-17 09:51:00,
2013-07-17 05:56:00,74.7,72.2,30.20,NE,47,0.0,1.0,92,0.00,,---,0.00,VWS V14.01,2013-07-17 09:56:00,
2013-07-17 06:00:00,74.7,72.2,30.20,NE,47,0.0,1.0,92,0.00,,---,0.00,VWS V14.01,2013-07-17 10:00:00,
2013-07-17 06:01:00,74.7,72.2,30.20,NE,47,0.0,0.0,92,0.00,,---,0.00,VWS V14.01,2013-07-17 10:01:00,
2013-07-17 06:06:00,74.7,72.2,30.19,NE,47,0.0,1.0,92,0.00,,---,0.00,VWS V14.01,2013-07-17 10:06:00,
2013-07-17 06:11:00,74.7,72.2,30.19,NE,47,0.0,3.0,92,0.00,,---,0.00,VWS V14.01,2013-07-17 10:11:00,
2013-07-17 06:16:00,74.7,72.2,30.19,NE,47,0.0,3.0,92,0.00,,---,0.00,VWS V14.01,2013-07-17 10:16:00,
2013-07-17 06:21:00,74.7,72.6,30.19,NE,47,0.0,3.0,93,0.00,,---,0.00,VWS V14.01,2013-07-17 10:21:00,
2013-07-17 06:26:00,74.7,72.6,30.19,NE,47,0.0,3.0,93,0.00,,---,0.00,VWS V14.01,2013-07-17 10:26:00,
2013-07-17 06:30:00,74.7,72.5,30.19,NE,47,0.0,3.0,93,0.00,,---,0.00,VWS V14.01,2013-07-17 10:30:00,
2013-07-17 06:31:00,74.7,72.6,30.19,NE,47,0.0,1.0,93,0.00,,---,0.00,VWS V14.01,2013-07-17 10:31:00,
2013-07-17 06:36:00,74.7,72.6,30.19,NE,47,0.0,1.0,93,0.00,,---,0.00,VWS V14.01,2013-07-17 10:36:00,
2013-07-17 06:41:00,74.8,72.6,30.20,NE,47,0.0,1.0,93,0.00,,---,0.00,VWS V14.01,2013-07-17 10:41:00,
2013-07-17 06:46:00,74.8,72.6,30.20,NE,47,0.0,3.0,93,0.00,,---,0.00,VWS V14.01,2013-07-17 10:46:00,
2013-07-17 06:51:00,74.9,72.7,30.20,NE,47,0.0,3.0,93,0.00,,---,0.00,VWS V14.01,2013-07-17 10:51:00,
2013-07-17 06:56:00,74.9,72.7,30.19,NE,47,0.0,3.0,93,0.00,,---,0.00,VWS V14.01,2013-07-17 10:56:00,
2013-07-17 07:00:00,74.9,72.7,30.20,NE,47,0.0,3.0,93,0.00,,---,0.00,VWS V14.01,2013-07-17 11:00:00,
2013-07-17 07:01:00,75.0,72.8,30.20,NE,47,0.0,1.0,93,0.00,,---,0.00,VWS V14.01,2013-07-17 11:01:00,
2013-07-17 07:06:00,75.1,72.9,30.20,ENE,57,1.0,4.0,93,0.00,,---,0.00,VWS V14.01,2013-07-17 11:06:00,
2013-07-17 07:11:00,75.2,72.7,30.20,ENE,76,0.0,5.0,92,0.00,,---,0.00,VWS V14.01,2013-07-17 11:11:00,
2013-07-17 07:16:00,75.3,72.8,30.20,NE,45,0.0,5.0,92,0.00,,---,0.00,VWS V14.01,2013-07-17 11:16:00,
2013-07-17 07:21:00,75.5,73.0,30.20,ENE,67,0.0,5.0,92,0.00,,---,0.00,VWS V14.01,2013-07-17 11:21:00,
2013-07-17 07:26:00,75.7,73.2,30.20,NE,55,0.0,5.0,92,0.00,,---,0.00,VWS V14.01,2013-07-17 11:26:00,
2013-07-17 07:30:00,75.8,73.3,30.20,NE,53,0.0,5.0,92,0.00,,---,0.00,VWS V14.01,2013-07-17 11:30:00,
2013-07-17 07:31:00,75.9,73.4,30.20,NE,53,0.0,1.0,92,0.00,,---,0.00,VWS V14.01,2013-07-17 11:31:00,
2013-07-17 07:36:00,76.1,73.3,30.21,NE,45,3.0,5.0,91,0.00,,---,0.00,VWS V14.01,2013-07-17 11:36:00,
2013-07-17 07:41:00,76.4,73.6,30.20,NE,44,0.0,5.0,91,0.00,,---,0.00,VWS V14.01,2013-07-17 11:41:00,
2013-07-17 07:46:00,76.6,73.4,30.20,ENE,59,0.0,5.0,90,0.00,,---,0.00,VWS V14.01,2013-07-17 11:46:00,
2013-07-17 07:51:00,76.9,73.8,30.20,ENE,61,0.0,5.0,90,0.00,,---,0.00,VWS V14.01,2013-07-17 11:51:00,
2013-07-17 07:56:00,77.1,73.6,30.20,ENE,71,0.0,5.0,89,0.00,,---,0.00,VWS V14.01,2013-07-17 11:56:00,
2013-07-17 08:00:00,77.1,73.6,30.20,ENE,70,0.0,5.0,89,0.00,,---,0.00,VWS V14.01,2013-07-17 12:00:00,
2013-07-17 08:01:00,77.3,73.8,30.21,NE,37,2.0,4.0,89,0.00,,---,0.00,VWS V14.01,2013-07-17 12:01:00,
2013-07-17 08:06:00,77.4,73.9,30.20,ENE,64,0.0,4.0,89,0.00,,---,0.00,VWS V14.01,2013-07-17 12:06:00,
2013-07-17 08:11:00,77.6,73.8,30.20,NE,56,2.0,5.0,88,0.00,,---,0.00,VWS V14.01,2013-07-17 12:11:00,
2013-07-17 08:16:00,77.6,73.8,30.20,NE,48,1.0,5.0,88,0.00,,---,0.00,VWS V14.01,2013-07-17 12:16:00,
2013-07-17 08:21:00,77.7,73.9,30.21,NE,53,0.0,5.0,88,0.00,,---,0.00,VWS V14.01,2013-07-17 12:21:00,
2013-07-17 08:26:00,77.8,74.0,30.21,NE,51,0.0,5.0,88,0.00,,---,0.00,VWS V14.01,2013-07-17 12:26:00,
2013-07-17 08:30:00,77.9,74.1,30.20,NE,51,0.0,5.0,88,0.00,,---,0.00,VWS V14.01,2013-07-17 12:30:00,
2013-07-17 08:31:00,78.1,74.3,30.21,NE,51,0.0,1.0,88,0.00,,---,0.00,VWS V14.01,2013-07-17 12:31:00,
2013-07-17 08:36:00,78.4,74.2,30.21,NNE,28,0.0,2.0,87,0.00,,---,0.00,VWS V14.01,2013-07-17 12:36:00,
2013-07-17 08:42:00,78.8,74.3,30.21,NE,42,0.0,3.0,86,0.00,,---,0.00,VWS V14.01,2013-07-17 12:42:00,
2013-07-17 08:47:00,79.0,74.5,30.20,NE,55,0.0,3.0,86,0.00,,---,0.00,VWS V14.01,2013-07-17 12:47:00,
2013-07-17 08:52:00,79.3,74.8,30.21,NE,53,0.0,3.0,86,0.00,,---,0.00,VWS V14.01,2013-07-17 12:52:00,
2013-07-17 08:57:00,79.6,75.1,30.20,ENE,73,0.0,3.0,86,0.00,,---,0.00,VWS V14.01,2013-07-17 12:57:00,
2013-07-17 09:00:00,79.7,74.8,30.21,ENE,66,0.0,3.0,85,0.00,,---,0.00,VWS V14.01,2013-07-17 13:00:00,
2013-07-17 09:02:00,79.8,74.9,30.21,ESE,105,0.0,0.0,85,0.00,,---,0.00,VWS V14.01,2013-07-17 13:02:00,
2013-07-17 09:07:00,80.0,75.1,30.21,ENE,74,0.0,5.0,85,0.00,,---,0.00,VWS V14.01,2013-07-17 13:07:00,
2013-07-17 09:12:00,80.1,75.2,30.21,ENE,74,0.0,5.0,85,0.00,,---,0.00,VWS V14.01,2013-07-17 13:12:00,
2013-07-17 09:17:00,80.3,75.4,30.21,NE,54,5.0,5.0,85,0.00,,---,0.00,VWS V14.01,2013-07-17 13:17:00,
2013-07-17 09:22:00,80.4,75.5,30.21,NE,55,0.0,5.0,85,0.00,,---,0.00,VWS V14.01,2013-07-17 13:22:00,
2013-07-17 09:27:00,80.6,75.3,30.21,NE,56,1.0,5.0,84,0.00,,---,0.00,VWS V14.01,2013-07-17 13:27:00,
2013-07-17 09:30:00,80.7,75.4,30.21,NE,55,0.0,5.0,84,0.00,,---,0.00,VWS V14.01,2013-07-17 13:30:00,
2013-07-17 09:32:00,80.9,75.6,30.21,NE,55,0.0,1.0,84,0.00,,---,0.00,VWS V14.01,2013-07-17 13:32:00,
2013-07-17 09:37:00,81.2,75.9,30.21,ENE,60,0.0,1.0,84,0.00,,---,0.00,VWS V14.01,2013-07-17 13:37:00,
2013-07-17 09:42:00,81.6,76.3,30.21,East,97,0.0,1.0,84,0.00,,---,0.00,VWS V14.01,2013-07-17 13:42:00,
2013-07-17 09:47:00,82.0,76.3,30.21,ENE,70,0.0,1.0,83,0.00,,---,0.00,VWS V14.01,2013-07-17 13:47:00,
2013-07-17 09:52:00,82.3,76.3,30.21,NE,44,0.0,4.0,82,0.00,,---,0.00,VWS V14.01,2013-07-17 13:52:00,
2013-07-17 09:57:00,82.6,76.6,30.21,ENE,66,0.0,4.0,82,0.00,,---,0.00,VWS V14.01,2013-07-17 13:57:00,
2013-07-17 10:00:00,82.7,76.7,30.21,East,88,0.0,4.0,82,0.00,,---,0.00,VWS V14.01,2013-07-17 14:00:00,
2013-07-17 10:02:00,83.1,77.0,30.21,East,93,0.0,3.0,82,0.00,,---,0.00,VWS V14.01,2013-07-17 14:02:00,
2013-07-17 10:07:00,83.5,77.1,30.21,East,83,0.0,4.0,81,0.00,,---,0.00,VWS V14.01,2013-07-17 14:07:00,
2013-07-17 10:12:00,84.2,77.4,30.21,East,82,0.0,4.0,80,0.00,,---,0.00,VWS V14.01,2013-07-17 14:12:00,
2013-07-17 10:17:00,84.7,77.1,30.21,SE,132,0.0,4.0,78,0.00,,---,0.00,VWS V14.01,2013-07-17 14:17:00,
2013-07-17 10:22:00,84.8,76.8,30.21,SSE,162,0.0,4.0,77,0.00,,---,0.00,VWS V14.01,2013-07-17 14:22:00,
2013-07-17 10:27:00,85.2,77.2,30.20,South,170,0.0,4.0,77,0.00,,---,0.00,VWS V14.01,2013-07-17 14:27:00,
2013-07-17 10:30:00,85.4,77.0,30.20,South,170,0.0,4.0,76,0.00,,---,0.00,VWS V14.01,2013-07-17 14:30:00,
2013-07-17 10:32:00,85.5,77.1,30.20,South,171,0.0,3.0,76,0.00,,---,0.00,VWS V14.01,2013-07-17 14:32:00,
2013-07-17 10:37:00,86.1,77.7,30.20,NE,46,0.0,3.0,76,0.00,,---,0.00,VWS V14.01,2013-07-17 14:37:00,
2013-07-17 10:42:00,86.8,77.9,30.20,SSE,166,0.0,3.0,75,0.00,,---,0.00,VWS V14.01,2013-07-17 14:42:00,
2013-07-17 10:47:00,87.2,77.9,30.20,SSE,166,0.0,3.0,74,0.00,,---,0.00,VWS V14.01,2013-07-17 14:47:00,
2013-07-17 10:52:00,87.4,77.3,30.20,SE,144,0.0,5.0,72,0.00,,---,0.00,VWS V14.01,2013-07-17 14:52:00,
2013-07-17 10:57:00,87.3,77.6,30.20,SSE,157,0.0,5.0,73,0.00,,---,0.00,VWS V14.01,2013-07-17 14:57:00,
2013-07-17 11:00:00,87.2,77.5,30.20,SSE,157,0.0,5.0,73,0.00,,---,0.00,VWS V14.01,2013-07-17 15:00:00,
2013-07-17 11:02:00,87.4,77.7,30.19,SSE,157,0.0,1.0,73,0.00,,---,0.00,VWS V14.01,2013-07-17 15:02:00,
2013-07-17 11:07:00,88.3,78.1,30.19,SE,134,1.0,3.0,72,0.00,,---,0.00,VWS V14.01,2013-07-17 15:07:00,
2013-07-17 11:12:00,88.2,77.6,30.19,SSE,163,0.0,4.0,71,0.00,,---,0.00,VWS V14.01,2013-07-17 15:12:00,
2013-07-17 11:17:00,88.8,78.2,30.19,ESE,111,0.0,4.0,71,0.00,,---,0.00,VWS V14.01,2013-07-17 15:17:00,
2013-07-17 11:22:00,89.3,78.2,30.19,South,187,0.0,4.0,70,0.00,,---,0.00,VWS V14.01,2013-07-17 15:22:00,
2013-07-17 11:27:00,89.2,77.7,30.19,NE,55,1.0,4.0,69,0.00,,---,0.00,VWS V14.01,2013-07-17 15:27:00,
2013-07-17 11:30:00,89.2,77.7,30.19,ENE,57,0.0,4.0,69,0.00,,---,0.00,VWS V14.01,2013-07-17 15:30:00,
2013-07-17 11:32:00,89.7,78.2,30.19,ENE,68,0.0,1.0,69,0.00,,---,0.00,VWS V14.01,2013-07-17 15:32:00,
2013-07-17 11:37:00,90.4,78.4,30.19,North,355,0.0,1.0,68,0.00,,---,0.00,VWS V14.01,2013-07-17 15:37:00,
2013-07-17 11:42:00,90.7,78.2,30.19,East,97,0.0,2.0,67,0.00,,---,0.00,VWS V14.01,2013-07-17 15:42:00,
2013-07-17 11:47:00,91.2,77.8,30.18,ESE,105,0.0,2.0,65,0.00,,---,0.00,VWS V14.01,2013-07-17 15:47:00,
2013-07-17 11:52:00,91.0,78.1,30.19,NE,51,0.0,3.0,66,0.00,,---,0.00,VWS V14.01,2013-07-17 15:52:00,
2013-07-17 11:57:00,91.0,78.1,30.19,NE,53,0.0,3.0,66,0.00,,---,0.00,VWS V14.01,2013-07-17 15:57:00,
2013-07-17 12:00:00,91.0,78.5,30.18,NE,51,4.0,4.0,67,0.00,,---,0.00,VWS V14.01,2013-07-17 16:00:00,
2013-07-17 12:02:00,90.8,77.9,30.18,NE,48,1.0,5.0,66,0.00,,---,0.00,VWS V14.01,2013-07-17 16:02:00,
2013-07-17 12:07:00,90.5,78.1,30.18,NE,35,1.0,5.0,67,0.00,,---,0.00,VWS V14.01,2013-07-17 16:07:00,
2013-07-17 12:12:00,90.5,77.6,30.18,SE,142,0.0,5.0,66,0.00,,---,0.00,VWS V14.01,2013-07-17 16:12:00,
2013-07-17 12:17:00,90.6,77.7,30.18,ESE,107,0.0,5.0,66,0.00,,---,0.00,VWS V14.01,2013-07-17 16:17:00,
2013-07-17 12:22:00,90.9,78.9,30.18,ESE,121,0.0,5.0,68,0.00,,---,0.00,VWS V14.01,2013-07-17 16:22:00,
2013-07-17 12:28:00,91.5,78.1,30.18,ENE,57,0.0,7.0,65,0.00,,---,0.00,VWS V14.01,2013-07-17 16:28:00,
2013-07-17 12:30:00,91.5,78.1,30.18,NE,38,3.0,7.0,65,0.00,,---,0.00,VWS V14.01,2013-07-17 16:30:00,
2013-07-17 12:33:00,91.6,78.6,30.18,ENE,65,0.0,4.0,66,0.00,,---,0.00,VWS V14.01,2013-07-17 16:33:00,
2013-07-17 12:37:00,91.1,78.2,30.17,North,360,0.0,4.0,66,0.00,,---,0.00,VWS V14.01,2013-07-17 16:37:00,
2013-07-17 12:43:00,90.9,78.4,30.17,NE,49,2.0,6.0,67,0.00,,---,0.00,VWS V14.01,2013-07-17 16:43:00,
2013-07-17 12:48:00,91.2,78.3,30.17,ENE,62,2.0,6.0,66,0.00,,---,0.00,VWS V14.01,2013-07-17 16:48:00,
2013-07-17 12:53:00,91.5,78.1,30.17,NE,54,0.0,6.0,65,0.00,,---,0.00,VWS V14.01,2013-07-17 16:53:00,
2013-07-17 12:58:00,91.2,77.8,30.17,NE,46,0.0,6.0,65,0.00,,---,0.00,VWS V14.01,2013-07-17 16:58:00,
2013-07-17 13:00:00,91.1,77.7,30.17,NE,46,0.0,6.0,65,0.00,,---,0.00,VWS V14.01,2013-07-17 17:00:00,
2013-07-17 13:03:00,91.4,78.0,30.17,North,5,0.0,1.0,65,0.00,,---,0.00,VWS V14.01,2013-07-17 17:03:00,
2013-07-17 13:08:00,91.9,77.0,30.17,NNW,327,0.0,4.0,62,0.00,,---,0.00,VWS V14.01,2013-07-17 17:08:00,
2013-07-17 13:13:00,92.7,77.3,30.16,NNW,327,0.0,4.0,61,0.00,,---,0.00,VWS V14.01,2013-07-17 17:13:00,
2013-07-17 13:18:00,93.0,77.1,30.16,East,84,0.0,4.0,60,0.00,,---,0.00,VWS V14.01,2013-07-17 17:18:00,
2013-07-17 13:23:00,93.0,76.6,30.16,SSE,149,0.0,4.0,59,0.00,,---,0.00,VWS V14.01,2013-07-17 17:23:00,
2013-07-17 13:28:00,92.8,76.4,30.16,SSE,155,0.0,4.0,59,0.00,,---,0.00,VWS V14.01,2013-07-17 17:28:00,
2013-07-17 13:30:00,92.8,76.4,30.16,SSE,155,0.0,4.0,59,0.00,,---,0.00,VWS V14.01,2013-07-17 17:30:00,
2013-07-17 13:33:00,92.7,76.3,30.16,SSE,155,0.0,0.0,59,0.00,,---,0.00,VWS V14.01,2013-07-17 17:33:00,
2013-07-17 13:38:00,92.5,76.1,30.15,SSE,164,0.0,1.0,59,0.00,,---,0.00,VWS V14.01,2013-07-17 17:38:00,
2013-07-17 13:43:00,92.2,76.3,30.15,ENE,68,1.0,5.0,60,0.00,,---,0.00,VWS V14.01,2013-07-17 17:43:00,
2013-07-17 13:48:00,92.0,75.6,30.15,SE,146,0.0,5.0,59,0.00,,---,0.00,VWS V14.01,2013-07-17 17:48:00,
2013-07-17 13:53:00,92.0,76.6,30.15,SE,146,0.0,5.0,61,0.00,,---,0.00,VWS V14.01,2013-07-17 17:53:00,
2013-07-17 13:58:00,92.4,76.0,30.15,WNW,293,2.0,5.0,59,0.00,,---,0.00,VWS V14.01,2013-07-17 17:58:00,
2013-07-17 14:00:00,92.4,76.0,30.15,WNW,293,0.0,5.0,59,0.00,,---,0.00,VWS V14.01,2013-07-17 18:00:00,
2013-07-17 14:03:00,92.6,77.2,30.14,South,172,0.0,3.0,61,0.00,,---,0.00,VWS V14.01,2013-07-17 18:03:00,
2013-07-17 14:08:00,92.8,76.4,30.14,SE,144,0.0,3.0,59,0.00,,---,0.00,VWS V14.01,2013-07-17 18:08:00,
2013-07-17 14:13:00,92.9,75.9,30.14,WNW,284,0.0,5.0,58,0.00,,---,0.00,VWS V14.01,2013-07-17 18:13:00,
2013-07-17 14:18:00,93.5,76.5,30.14,ESE,109,0.0,5.0,58,0.00,,---,0.00,VWS V14.01,2013-07-17 18:18:00,
2013-07-17 14:23:00,93.9,76.9,30.13,East,99,2.0,5.0,58,0.00,,---,0.00,VWS V14.01,2013-07-17 18:23:00,
2013-07-17 14:28:00,94.4,76.3,30.13,SE,129,4.0,5.0,56,0.00,,---,0.00,VWS V14.01,2013-07-17 18:28:00,
2013-07-17 14:30:00,94.4,76.3,30.13,ESE,121,0.0,5.0,56,0.00,,---,0.00,VWS V14.01,2013-07-17 18:30:00,
2013-07-17 14:33:00,94.2,76.1,30.13,SE,136,0.0,3.0,56,0.00,,---,0.00,VWS V14.01,2013-07-17 18:33:00,
2013-07-17 14:38:00,94.0,77.0,30.12,ENE,68,1.0,3.0,58,0.00,,---,0.00,VWS V14.01,2013-07-17 18:38:00,
2013-07-17 14:43:00,93.9,75.8,30.12,NE,47,3.0,7.0,56,0.00,,---,0.00,VWS V14.01,2013-07-17 18:43:00,
2013-07-17 14:48:00,93.7,76.2,30.11,NE,53,0.0,7.0,57,0.00,,---,0.00,VWS V14.01,2013-07-17 18:48:00,
2013-07-17 14:53:00,93.3,75.8,30.10,NE,50,0.0,7.0,57,0.00,,---,0.00,VWS V14.01,2013-07-17 18:53:00,
2013-07-17 14:58:00,93.0,75.5,30.12,ENE,76,0.0,7.0,57,0.00,,---,0.00,VWS V14.01,2013-07-17 18:58:00,
2013-07-17 15:00:00,93.0,75.5,30.12,ENE,76,0.0,7.0,57,0.00,,---,0.00,VWS V14.01,2013-07-17 19:00:00,
2013-07-17 15:03:00,92.8,76.4,30.12,ENE,57,4.0,4.0,59,0.00,,---,0.00,VWS V14.01,2013-07-17 19:03:00,
2013-07-17 15:08:00,92.0,77.1,30.12,NNE,27,0.0,5.0,62,0.00,,---,0.00,VWS V14.01,2013-07-17 19:08:00,
2013-07-17 15:13:00,91.4,77.5,30.12,NE,40,0.0,5.0,64,0.00,,---,0.00,VWS V14.01,2013-07-17 19:13:00,
2013-07-17 15:18:00,89.0,77.9,30.14,SSW,197,3.0,9.0,70,0.10,,---,0.10,VWS V14.01,2013-07-17 19:18:00,
2013-07-17 15:23:00,83.2,76.0,30.13,WSW,254,3.0,14.0,79,0.28,,---,0.28,VWS V14.01,2013-07-17 19:23:00,
2013-07-17 15:28:00,79.1,73.5,30.14,SE,139,0.0,14.0,83,0.34,,---,0.34,VWS V14.01,2013-07-17 19:28:00,
2013-07-17 15:30:00,79.0,73.4,30.14,West,279,7.0,14.0,83,0.34,,---,0.34,VWS V14.01,2013-07-17 19:30:00,
2013-07-17 15:33:00,76.6,72.1,30.14,West,261,9.0,16.0,86,0.38,,---,0.38,VWS V14.01,2013-07-17 19:33:00,
2013-07-17 15:38:00,75.9,72.4,30.14,West,260,4.0,16.0,89,0.40,,---,0.40,VWS V14.01,2013-07-17 19:38:00,
2013-07-17 15:43:00,75.8,73.0,30.12,NW,306,3.0,16.0,91,0.41,,---,0.41,VWS V14.01,2013-07-17 19:43:00,
2013-07-17 15:48:00,75.5,72.4,30.13,WNW,300,10.0,16.0,90,0.42,,---,0.42,VWS V14.01,2013-07-17 19:48:00,
2013-07-17 15:54:00,75.4,72.6,30.14,NW,321,0.0,16.0,91,0.42,,---,0.42,VWS V14.01,2013-07-17 19:54:00,
2013-07-17 15:59:00,75.6,73.1,30.13,North,360,0.0,16.0,92,0.42,,---,0.42,VWS V14.01,2013-07-17 19:59:00,
2013-07-17 16:00:00,75.6,73.1,30.13,North,360,0.0,16.0,92,0.42,,---,0.42,VWS V14.01,2013-07-17 20:00:00,
2013-07-17 16:04:00,76.0,73.5,30.13,North,355,0.0,0.0,92,0.42,,---,0.42,VWS V14.01,2013-07-17 20:04:00,
2013-07-17 16:09:00,76.1,73.9,30.13,NNE,18,0.0,1.0,93,0.42,,---,0.42,VWS V14.01,2013-07-17 20:09:00,
2013-07-17 16:14:00,76.4,74.2,30.13,East,79,0.0,3.0,93,0.42,,---,0.42,VWS V14.01,2013-07-17 20:14:00,
2013-07-17 16:19:00,76.6,74.4,30.12,East,87,0.0,3.0,93,0.42,,---,0.42,VWS V14.01,2013-07-17 20:19:00,
2013-07-17 16:24:00,76.6,74.4,30.12,East,87,0.0,3.0,93,0.42,,---,0.42,VWS V14.01,2013-07-17 20:24:00,
2013-07-17 16:29:00,76.8,74.6,30.13,East,87,0.0,0.0,93,0.08,,---,0.42,VWS V14.01,2013-07-17 20:29:00,
2013-07-17 16:30:00,76.8,74.6,30.13,East,87,0.0,3.0,93,0.42,,---,0.42,VWS V14.01,2013-07-17 20:30:00,
2013-07-17 16:34:00,76.9,74.7,30.12,East,87,0.0,0.0,93,0.08,,---,0.42,VWS V14.01,2013-07-17 20:34:00,
2013-07-17 16:39:00,77.0,74.8,30.11,East,86,0.0,0.0,93,0.08,,---,0.42,VWS V14.01,2013-07-17 20:39:00,
2013-07-17 16:44:00,77.1,74.6,30.10,South,169,0.0,1.0,92,0.08,,---,0.42,VWS V14.01,2013-07-17 20:44:00,
2013-07-17 16:49:00,77.0,74.5,30.11,WSW,258,1.0,3.0,92,0.08,,---,0.42,VWS V14.01,2013-07-17 20:49:00,
2013-07-17 16:54:00,76.5,74.0,30.13,West,259,0.0,8.0,92,0.08,,---,0.42,VWS V14.01,2013-07-17 20:54:00,
2013-07-17 16:59:00,76.2,73.7,30.13,West,260,0.0,0.0,92,0.00,,---,0.42,VWS V14.01,2013-07-17 20:59:00,
2013-07-17 17:00:00,76.2,73.7,30.13,West,260,0.0,8.0,92,0.08,,---,0.42,VWS V14.01,2013-07-17 21:00:00,
2013-07-17 17:04:00,76.1,73.6,30.13,West,260,0.0,0.0,92,0.00,,---,0.42,VWS V14.01,2013-07-17 21:04:00,
2013-07-17 17:09:00,76.0,73.5,30.12,ESE,119,0.0,1.0,92,0.00,,---,0.42,VWS V14.01,2013-07-17 21:09:00,
2013-07-17 17:14:00,76.0,73.5,30.11,ESE,119,0.0,1.0,92,0.00,,---,0.42,VWS V14.01,2013-07-17 21:14:00,
2013-07-17 17:19:00,76.1,73.6,30.11,ESE,119,0.0,1.0,92,0.00,,---,0.42,VWS V14.01,2013-07-17 21:19:00,
2013-07-17 17:24:00,76.1,73.6,30.10,South,181,0.0,1.0,92,0.00,,---,0.42,VWS V14.01,2013-07-17 21:24:00,
2013-07-17 17:29:00,76.2,73.7,30.11,West,265,0.0,0.0,92,0.00,,---,0.42,VWS V14.01,2013-07-17 21:29:00,
2013-07-17 17:30:00,76.2,73.7,30.11,West,265,0.0,1.0,92,0.00,,---,0.42,VWS V14.01,2013-07-17 21:30:00,
2013-07-17 17:34:00,76.1,73.6,30.11,West,278,0.0,4.0,92,0.00,,---,0.42,VWS V14.01,2013-07-17 21:34:00,
2013-07-17 17:39:00,75.9,73.4,30.10,WSW,256,0.0,4.0,92,0.00,,---,0.42,VWS V14.01,2013-07-17 21:39:00,
2013-07-17 17:44:00,75.6,72.8,30.10,West,260,0.0,4.0,91,0.00,,---,0.42,VWS V14.01,2013-07-17 21:44:00,
2013-07-17 17:49:00,75.5,72.7,30.10,NW,306,0.0,4.0,91,0.00,,---,0.42,VWS V14.01,2013-07-17 21:49:00,
2013-07-17 17:54:00,75.3,72.5,30.10,NW,305,0.0,4.0,91,0.00,,---,0.42,VWS V14.01,2013-07-17 21:54:00,
2013-07-17 17:59:00,75.1,72.3,30.11,NW,305,0.0,1.0,91,0.00,,---,0.42,VWS V14.01,2013-07-17 21:59:00,
2013-07-17 18:00:00,75.2,72.4,30.10,NW,305,0.0,4.0,91,0.00,,---,0.42,VWS V14.01,2013-07-17 22:00:00,
2013-07-17 18:04:00,75.2,72.4,30.12,NW,305,0.0,1.0,91,0.00,,---,0.42,VWS V14.01,2013-07-17 22:04:00,
2013-07-17 18:09:00,75.2,72.4,30.13,NW,305,0.0,1.0,91,0.00,,---,0.42,VWS V14.01,2013-07-17 22:09:00,
2013-07-17 18:14:00,75.3,72.2,30.14,NNW,336,0.0,2.0,90,0.00,,---,0.42,VWS V14.01,2013-07-17 22:14:00,
2013-07-17 18:19:00,75.3,71.8,30.14,NNW,336,0.0,2.0,89,0.00,,---,0.42,VWS V14.01,2013-07-17 22:19:00,
2013-07-17 18:24:00,75.3,71.8,30.14,NNW,336,0.0,2.0,89,0.00,,---,0.42,VWS V14.01,2013-07-17 22:24:00,
2013-07-17 18:29:00,75.5,72.4,30.14,NNW,336,0.0,1.0,90,0.00,,---,0.42,VWS V14.01,2013-07-17 22:29:00,
2013-07-17 18:30:00,75.5,72.4,30.14,NNW,336,0.0,2.0,90,0.00,,---,0.42,VWS V14.01,2013-07-17 22:30:00,
2013-07-17 18:34:00,75.7,72.6,30.14,North,355,0.0,1.0,90,0.00,,---,0.42,VWS V14.01,2013-07-17 22:34:00,
2013-07-17 18:39:00,76.1,73.0,30.16,East,84,3.0,8.0,90,0.00,,---,0.42,VWS V14.01,2013-07-17 22:39:00,
2013-07-17 18:44:00,76.4,73.2,30.16,NE,50,0.0,8.0,90,0.00,,---,0.42,VWS V14.01,2013-07-17 22:44:00,
2013-07-17 18:49:00,76.7,73.9,30.16,NNE,18,0.0,8.0,91,0.00,,---,0.42,VWS V14.01,2013-07-17 22:49:00,
2013-07-17 18:54:00,76.7,73.6,30.16,NE,34,0.0,8.0,90,0.00,,---,0.42,VWS V14.01,2013-07-17 22:54:00,
2013-07-17 18:59:00,76.7,73.6,30.16,ENE,57,0.0,0.0,90,0.00,,---,0.42,VWS V14.01,2013-07-17 22:59:00,
2013-07-17 19:00:00,76.7,73.6,30.16,NE,54,0.0,8.0,90,0.00,,---,0.42,VWS V14.01,2013-07-17 23:00:00,
2013-07-17 19:05:00,76.7,73.6,30.16,ENE,66,0.0,5.0,90,0.00,,---,0.42,VWS V14.01,2013-07-17 23:05:00,
2013-07-17 19:10:00,76.7,73.2,30.16,ENE,62,0.0,6.0,89,0.00,,---,0.42,VWS V14.01,2013-07-17 23:10:00,
2013-07-17 19:15:00,76.6,73.1,30.16,ENE,62,0.0,6.0,89,0.00,,---,0.42,VWS V14.01,2013-07-17 23:15:00,
2013-07-17 19:20:00,76.4,72.9,30.15,ENE,62,0.0,6.0,89,0.00,,---,0.42,VWS V14.01,2013-07-17 23:20:00,
2013-07-17 19:25:00,76.5,73.0,30.15,ENE,58,3.0,6.0,89,0.00,,---,0.42,VWS V14.01,2013-07-17 23:25:00,
2013-07-17 19:30:00,76.6,73.1,30.15,NE,54,0.0,0.0,89,0.00,,---,0.42,VWS V14.01,2013-07-17 23:30:00,
2013-07-17 19:35:00,76.6,73.1,30.14,NE,41,1.0,3.0,89,0.00,,---,0.42,VWS V14.01,2013-07-17 23:35:00,
2013-07-17 19:39:00,76.4,72.9,30.14,ENE,57,0.0,3.0,89,0.00,,---,0.42,VWS V14.01,2013-07-17 23:39:00,
2013-07-17 19:44:00,76.2,72.7,30.14,ENE,57,0.0,3.0,89,0.00,,---,0.42,VWS V14.01,2013-07-17 23:44:00,
2013-07-17 19:50:00,76.2,72.7,30.14,ENE,57,0.0,3.0,89,0.00,,---,0.42,VWS V14.01,2013-07-17 23:50:00,
2013-07-17 19:55:00,76.2,72.7,30.14,ENE,57,0.0,3.0,89,0.00,,---,0.42,VWS V14.01,2013-07-17 23:55:00,
2013-07-17 20:00:00,76.2,72.7,30.14,ENE,57,0.0,0.0,89,0.00,,---,0.42,VWS V14.01,2013-07-18 00:00:00,
2013-07-17 20:05:00,76.2,72.7,30.14,ENE,57,0.0,0.0,89,0.00,,---,0.42,VWS V14.01,2013-07-18 00:05:00,
2013-07-17 20:10:00,76.0,72.5,30.14,ENE,57,0.0,0.0,89,0.00,,---,0.42,VWS V14.01,2013-07-18 00:10:00,
2013-07-17 20:15:00,76.0,72.5,30.13,ENE,58,0.0,1.0,89,0.00,,---,0.42,VWS V14.01,2013-07-18 00:15:00,
2013-07-17 20:20:00,76.0,72.5,30.14,ENE,58,0.0,1.0,89,0.00,,---,0.42,VWS V14.01,2013-07-18 00:20:00,
2013-07-17 20:25:00,75.8,72.7,30.13,ENE,58,0.0,1.0,90,0.00,,---,0.42,VWS V14.01,2013-07-18 00:25:00,
2013-07-17 20:30:00,75.8,72.7,30.13,ENE,58,0.0,0.0,90,0.00,,---,0.42,VWS V14.01,2013-07-18 00:30:00,
2013-07-17 20:35:00,75.6,72.5,30.13,ENE,58,0.0,1.0,90,0.00,,---,0.42,VWS V14.01,2013-07-18 00:35:00,
2013-07-17 20:40:00,75.4,72.3,30.13,ENE,59,0.0,1.0,90,0.00,,---,0.42,VWS V14.01,2013-07-18 00:40:00,
2013-07-17 20:45:00,75.3,72.5,30.12,East,88,0.0,1.0,91,0.00,,---,0.42,VWS V14.01,2013-07-18 00:45:00,
2013-07-17 20:50:00,75.2,72.4,30.13,East,88,0.0,1.0,91,0.00,,---,0.42,VWS V14.01,2013-07-18 00:50:00,
2013-07-17 20:55:00,75.2,72.4,30.12,East,88,0.0,1.0,91,0.00,,---,0.42,VWS V14.01,2013-07-18 00:55:00,
2013-07-17 21:00:00,75.1,72.3,30.12,East,88,0.0,0.0,91,0.00,,---,0.42,VWS V14.01,2013-07-18 01:00:00,
2013-07-17 21:05:00,75.0,72.5,30.13,East,88,0.0,0.0,92,0.00,,---,0.42,VWS V14.01,2013-07-18 01:05:00,
2013-07-17 21:10:00,74.9,72.4,30.13,East,88,0.0,0.0,92,0.00,,---,0.42,VWS V14.01,2013-07-18 01:10:00,
2013-07-17 21:15:00,74.8,72.3,30.13,East,88,0.0,0.0,92,0.00,,---,0.42,VWS V14.01,2013-07-18 01:15:00,
2013-07-17 21:20:00,74.8,72.3,30.14,East,88,0.0,0.0,92,0.00,,---,0.42,VWS V14.01,2013-07-18 01:20:00,
2013-07-17 21:25:00,74.7,72.2,30.14,East,88,0.0,1.0,92,0.00,,---,0.42,VWS V14.01,2013-07-18 01:25:00,
2013-07-17 21:30:00,74.7,72.2,30.13,East,88,0.0,0.0,92,0.00,,---,0.42,VWS V14.01,2013-07-18 01:30:00,
2013-07-17 21:35:00,74.6,72.1,30.14,East,88,0.0,0.0,92,0.00,,---,0.42,VWS V14.01,2013-07-18 01:35:00,
2013-07-17 21:40:00,74.4,71.9,30.14,East,88,0.0,0.0,92,0.00,,---,0.42,VWS V14.01,2013-07-18 01:40:00,
2013-07-17 21:45:00,74.4,71.9,30.14,East,88,0.0,0.0,92,0.00,,---,0.42,VWS V14.01,2013-07-18 01:45:00,
2013-07-17 21:50:00,74.3,71.8,30.14,East,88,0.0,0.0,92,0.00,,---,0.42,VWS V14.01,2013-07-18 01:50:00,
2013-07-17 21:55:00,74.3,72.2,30.14,East,88,0.0,1.0,93,0.00,,---,0.42,VWS V14.01,2013-07-18 01:55:00,
2013-07-17 22:00:00,74.4,72.2,30.14,East,88,0.0,0.0,93,0.00,,---,0.42,VWS V14.01,2013-07-18 02:00:00,
2013-07-17 22:05:00,74.5,72.3,30.14,East,88,0.0,1.0,93,0.00,,---,0.42,VWS V14.01,2013-07-18 02:05:00,
2013-07-17 22:10:00,74.5,72.3,30.14,East,88,0.0,1.0,93,0.00,,---,0.42,VWS V14.01,2013-07-18 02:10:00,
2013-07-17 22:15:00,74.4,72.2,30.15,East,88,0.0,1.0,93,0.00,,---,0.42,VWS V14.01,2013-07-18 02:15:00,
2013-07-17 22:20:00,74.4,72.2,30.15,East,88,0.0,1.0,93,0.00,,---,0.42,VWS V14.01,2013-07-18 02:20:00,
2013-07-17 22:26:00,74.3,72.2,30.15,East,88,0.0,1.0,93,0.00,,---,0.42,VWS V14.01,2013-07-18 02:26:00,
2013-07-17 22:30:00,74.4,72.2,30.14,East,88,0.0,1.0,93,0.00,,---,0.42,VWS V14.01,2013-07-18 02:30:00,
2013-07-17 22:31:00,74.4,72.2,30.14,East,88,0.0,0.0,93,0.00,,---,0.42,VWS V14.01,2013-07-18 02:31:00,
2013-07-17 22:36:00,74.3,72.2,30.14,East,88,0.0,0.0,93,0.00,,---,0.42,VWS V14.01,2013-07-18 02:36:00,
2013-07-17 22:41:00,74.3,72.2,30.14,East,88,0.0,1.0,93,0.00,,---,0.42,VWS V14.01,2013-07-18 02:41:00,
2013-07-17 22:46:00,74.2,72.1,30.14,East,88,0.0,1.0,93,0.00,,---,0.42,VWS V14.01,2013-07-18 02:46:00,
2013-07-17 22:51:00,74.2,72.1,30.14,East,88,0.0,1.0,93,0.00,,---,0.42,VWS V14.01,2013-07-18 02:51:00,
2013-07-17 22:56:00,74.1,71.9,30.14,NNE,17,0.0,1.0,93,0.00,,---,0.42,VWS V14.01,2013-07-18 02:56:00,
2013-07-17 23:00:00,74.0,71.8,30.15,NNE,17,0.0,1.0,93,0.00,,---,0.42,VWS V14.01,2013-07-18 03:00:00,
2013-07-17 23:01:00,73.8,71.7,30.15,NNE,17,0.0,0.0,93,0.00,,---,0.42,VWS V14.01,2013-07-18 03:01:00,
2013-07-17 23:06:00,73.7,71.6,30.15,NE,46,0.0,1.0,93,0.00,,---,0.42,VWS V14.01,2013-07-18 03:06:00,
2013-07-17 23:11:00,73.5,71.4,30.16,NE,46,0.0,1.0,93,0.00,,---,0.42,VWS V14.01,2013-07-18 03:11:00,
2013-07-17 23:16:00,73.5,71.4,30.16,NE,46,0.0,1.0,93,0.00,,---,0.42,VWS V14.01,2013-07-18 03:16:00,
2013-07-17 23:21:00,73.5,71.7,30.16,NE,44,0.0,1.0,94,0.00,,---,0.42,VWS V14.01,2013-07-18 03:21:00,
2013-07-17 23:26:00,73.5,71.7,30.16,NE,44,0.0,1.0,94,0.00,,---,0.42,VWS V14.01,2013-07-18 03:26:00,
2013-07-17 23:30:00,73.5,71.7,30.16,NE,44,0.0,1.0,94,0.00,,---,0.42,VWS V14.01,2013-07-18 03:30:00,
2013-07-17 23:31:00,73.5,71.7,30.16,NE,44,0.0,1.0,94,0.00,,---,0.42,VWS V14.01,2013-07-18 03:31:00,
2013-07-17 23:36:00,73.5,71.7,30.16,NE,44,0.0,1.0,94,0.00,,---,0.42,VWS V14.01,2013-07-18 03:36:00,
2013-07-17 23:41:00,73.5,71.7,30.16,NE,44,0.0,1.0,94,0.00,,---,0.42,VWS V14.01,2013-07-18 03:41:00,
2013-07-17 23:46:00,73.5,71.7,30.16,NE,44,0.0,1.0,94,0.00,,---,0.42,VWS V14.01,2013-07-18 03:46:00,
2013-07-17 23:51:00,73.5,71.7,30.16,NE,40,0.0,3.0,94,0.00,,---,0.42,VWS V14.01,2013-07-18 03:51:00,
2013-07-17 23:56:00,73.5,71.7,30.15,NE,40,0.0,3.0,94,0.00,,---,0.42,VWS V14.01,2013-07-18 03:56:00,